[[{"header":{"parameterUnit":"m.s-1","parameterCategory":1,"la1":30.2991,"la2":30.254,"lo1":-89.0895,"lo2":-89.0444,"dy":0.0017,"dx":0.0017,"nx":28,"ny":28,"refTime":"2025-06-23T03:00:00:Z","depth":0,"parameterNumber":2,"parameterNumberName":"U-component_of_WINDS"},"data":[0,0,0,0,0,0,0,0,0,0,0,0,0,0,0,0,0,0,0,0,0,0,0,0,0,0,0,0,0,0,0,0,0,0,0,0,0,0,0,0,0,0,0,0,0,0,0,0,0,0,0,0,0,0,0,0,0,0,-2.8318,-2.8317,0,-2.8233,-2.8232,-2.8231,-2.8134,-2.8133,-2.8132,-2.813,-2.8045,-2.8045,-2.8044,0,0,0,0,0,0,0,0,0,0,0,0,0,-2.84,-2.8399,-2.8318,-2.8317,-2.8316,-2.8233,-2.8232,-2.8231,-2.8135,-2.8133,-2.8131,-2.8129,-2.8046,-2.8045,-2.8044,0,0,0,0,0,0,0,0,0,0,0,0,0,-2.8345,-2.8399,-2.8318,-2.8258,-2.8251,-2.8233,-2.8232,-2.823,-2.8135,-2.8133,-2.8131,-2.8129,-2.8046,-2.8045,-2.8043,-2.8078,0,0,-2.8039,-2.8039,0,0,0,0,0,0,0,0,-2.8348,-2.8342,-2.8268,-2.8262,-2.8255,-2.8192,-2.823,-2.818,-2.8136,-2.8179,-2.813,-2.8128,-2.8096,-2.809,-2.8079,-2.8074,-2.8071,-2.8039,-2.8038,-2.8038,-2.8037,0,0,0,0,0,0,0,-2.8352,-2.8345,-2.8284,-2.8267,-2.8259,-2.8236,-2.8226,-2.822,-2.8151,-2.8175,-2.8168,-2.8159,-2.8092,-2.8081,-2.8077,-2.8069,-2.8039,-2.8038,-2.8037,-2.8037,-2.8092,-2.8094,0,0,0,0,0,0,-2.8365,-2.8349,-2.8287,-2.8282,-2.8297,-2.8237,-2.8225,-2.8214,-2.8151,-2.8139,-2.8161,-2.8155,-2.8084,-2.8078,-2.8073,-2.8112,-2.8038,-2.8036,-2.8036,-2.809,-2.8093,-2.8095,0,0,0,0,0,0,-2.8367,-2.836,-2.829,-2.8313,-2.8303,-2.8237,-2.8226,-2.8214,-2.8202,-2.814,-2.8128,-2.8162,-2.8082,-2.8075,-2.8078,-2.8108,-2.8036,-2.8035,-2.8087,-2.8091,-2.8094,-2.8188,0,0,0,0,0,0,-2.837,-2.8361,-2.8373,-2.8314,-2.8302,-2.8296,-2.8228,-2.8214,-2.82,-2.8191,-2.8138,-2.8127,-2.808,-2.8081,-2.8077,-2.8104,-2.8033,-2.8084,-2.8089,-2.8093,-2.8182,-2.8195,-2.8205,0,0,0,0,0,-2.8373,-2.8403,-2.8374,-2.8367,-2.8315,-2.8298,-2.8291,-2.8236,-2.8203,-2.8215,-2.8175,-2.8128,-2.8105,-2.8082,-2.8077,-2.8104,-2.8082,-2.8088,-2.8093,-2.8177,-2.8192,-2.8205,0,0,0,0,0,0,-2.8466,-2.8394,-2.8361,-2.8372,-2.8342,-2.8281,-2.8294,-2.8253,-2.8232,-2.8224,-2.8158,-2.8147,-2.8159,-2.8131,-2.8107,-2.8136,-2.8087,-2.8092,-2.8153,-2.8167,-2.8178,-2.8185,-2.8032,0,0,0,0,0,-2.8488,-2.8479,-2.8417,-2.8433,-2.842,-2.836,-2.835,-2.8311,-2.8277,-2.8264,-2.8224,-2.8194,-2.818,-2.8172,-2.8155,-2.8178,-2.8167,-2.8195,-2.8206,-2.8216,-2.8221,-2.8234,-2.8246,-2.8112,-2.8112,-2.8112,0,0,-2.8533,-2.8493,-2.8491,-2.8451,-2.8422,-2.8417,-2.835,-2.8345,-2.8341,-2.8263,-2.8264,-2.8235,-2.8196,-2.821,-2.8215,-2.8188,-2.8255,-2.8223,-2.8231,-2.823,-2.824,-2.8253,-2.8264,-2.8116,-2.8115,-2.8115,0,0,-2.8612,-2.858,-2.8591,-2.8565,-2.8523,-2.8484,-2.8487,-2.8433,-2.841,-2.841,-2.8353,-2.8347,-2.8323,-2.8299,-2.8284,-2.8358,-2.8315,-2.8355,-2.8414,-2.8428,-2.8438,-2.8447,-2.8476,-2.8486,-2.836,-2.836,-2.836,0,-2.8674,-2.8661,-2.8602,-2.8602,-2.8587,-2.8517,-2.8529,-2.8507,-2.8462,-2.8454,-2.8426,-2.8397,-2.8366,-2.8375,-2.8393,-2.8382,-2.8385,-2.836,-2.8441,-2.845,-2.8458,-2.8484,-2.8494,-2.8365,-2.8364,-2.8364,-2.8363,0,-2.874,-2.8733,-2.8747,-2.8706,-2.8693,-2.8699,-2.8642,-2.8636,-2.8599,-2.8564,-2.8566,-2.8527,-2.8503,-2.8502,-2.8465,-2.8507,-2.8492,-2.8453,-2.8403,-2.8477,-2.85,-2.851,-2.8372,-2.8371,-2.8369,-2.8368,0,0,-2.8873,-2.8802,-2.8808,-2.879,-2.874,-2.8734,-2.8739,-2.8714,-2.8712,-2.8684,-2.8687,-2.8671,-2.8636,-2.8619,-2.8579,-2.8591,-2.8655,-2.8551,-2.8549,-2.8573,-2.8701,-2.8731,-2.8743,-2.8626,-2.8628,-2.8629,-2.8705,0,-2.8945,-2.8947,-2.8895,-2.8912,-2.8906,-2.8841,-2.8845,-2.8817,-2.8784,-2.8776,-2.874,-2.873,-2.8683,-2.8673,-2.8682,-2.8645,-2.868,-2.8639,-2.863,-2.8631,-2.8643,-2.8755,-2.8786,-2.8859,-2.8713,-2.8715,-2.8716,0,-2.9027,-2.9005,-2.9022,-2.8974,-2.897,-2.8974,-2.8949,-2.8941,-2.8909,-2.8884,-2.8867,-2.8823,-2.8826,-2.8778,-2.8782,-2.8756,-2.8749,-2.8731,-2.8733,-2.873,-2.8678,-2.8757,-2.8881,-2.8892,-2.8729,-2.8728,-2.8727,0,-2.9125,-2.91,-2.9107,-2.9093,-2.9037,-2.9042,-2.9019,-2.8984,-2.8974,-2.8953,-2.8947,-2.8927,-2.8916,-2.8903,-2.8855,-2.8824,-2.8866,-2.8814,-2.8848,-2.8849,-2.8859,-2.886,-2.8985,-2.8854,-2.8854,-2.8854,-2.8854,0,-2.921,-2.9223,-2.915,-2.9155,-2.9169,-2.9111,-2.9126,-2.9097,-2.9067,-2.9067,-2.901,-2.901,-2.8947,-2.8941,-2.8904,-2.8915,-2.891,-2.8892,-2.8882,-2.8898,-2.89,-2.8893,-2.8887,-2.8857,-2.8856,-2.8856,-2.8855,0,-2.9321,-2.9273,-2.9277,-2.9224,-2.9212,-2.9225,-2.918,-2.9184,-2.9149,-2.9149,-2.9146,-2.9091,-2.9082,-2.9033,-2.9012,-2.8988,-2.9012,-2.8992,-2.9023,-2.9017,-2.9055,-2.9053,-2.9181,-2.9196,-2.9055,-2.9056,-2.9057,0,-2.9379,-2.9388,-2.9337,-2.9332,-2.9312,-2.9305,-2.9295,-2.924,-2.9232,-2.9197,-2.9205,-2.9191,-2.9177,-2.9166,-2.9126,-2.9111,-2.909,-2.9136,-2.9087,-2.9104,-2.9093,-2.9093,-2.9095,-2.9147,-2.9148,-2.915,-2.9151,0,-2.9487,-2.9464,-2.9451,-2.9431,-2.9421,-2.9402,-2.938,-2.938,-2.9319,-2.9314,-2.9303,-2.9293,-2.9273,-2.9261,-2.9239,-2.9217,-2.9175,-2.9167,-2.9174,-2.9191,-2.9209,-2.9202,-2.9053,-2.9164,-2.9163,-2.9162,-2.9161,-2.9161,-2.9574,-2.958,-2.9546,-2.9535,-2.9513,-2.9495,-2.9496,-2.9462,-2.9453,-2.9432,-2.94,-2.9395,-2.9365,-2.9332,-2.9314,-2.931,-2.9286,-2.9296,-2.9299,-2.9302,-2.9311,-2.921,-2.9306,-2.9305,-2.9305,-2.9305,-2.9304,0,-2.9681,-2.9656,-2.9647,-2.9619,-2.9611,-2.9571,-2.9546,-2.9543,-2.9539,-2.9514,-2.9502,-2.9493,-2.9481,-2.9442,-2.9427,-2.9432,-2.9413,-2.943,-2.943,-2.9426,-2.9333,-2.9329,-2.9446,-2.9446,-2.9446,-2.9446,-2.9446,-2.9446,-2.9735,-2.9744,-2.9717,-2.9716,-2.9691,-2.9686,-2.9675,-2.9659,-2.9639,-2.9631,-2.9621,-2.9595,-2.9565,-2.9549,-2.9538,-2.9526,-2.9524,-2.9549,-2.9532,-2.9446,-2.9432,-2.9419,-2.9415,-2.9549,-2.9549,-2.9625,-2.9625,-2.9626]},{"header":{"parameterUnit":"m.s-1","parameterCategory":1,"la1":30.2991,"la2":30.254,"lo1":-89.0895,"lo2":-89.0444,"dy":0.0017,"dx":0.0017,"nx":28,"ny":28,"refTime":"2025-06-23T03:00:00:Z","depth":0,"parameterNumber":3,"parameterNumberName":"V-component_of_WINDS"},"data":[0,0,0,0,0,0,0,0,0,0,0,0,0,0,0,0,0,0,0,0,0,0,0,0,0,0,0,0,0,0,0,0,0,0,0,0,0,0,0,0,0,0,0,0,0,0,0,0,0,0,0,0,0,0,0,0,0,0,1.5701,1.5701,0,1.5735,1.5736,1.5736,1.5791,1.5792,1.5793,1.5794,1.5827,1.5827,1.5827,0,0,0,0,0,0,0,0,0,0,0,0,0,1.5681,1.5681,1.5701,1.5701,1.5702,1.5735,1.5736,1.5736,1.5791,1.5792,1.5794,1.5795,1.5827,1.5827,1.5827,0,0,0,0,0,0,0,0,0,0,0,0,0,1.57,1.5681,1.5701,1.5733,1.5737,1.5735,1.5736,1.5736,1.5791,1.5793,1.5794,1.5795,1.5827,1.5827,1.5827,1.5796,0,0,1.5827,1.5827,0,0,0,0,0,0,0,0,1.5699,1.5701,1.5728,1.5731,1.5735,1.5761,1.5741,1.5756,1.5791,1.577,1.5794,1.5796,1.5804,1.5806,1.5809,1.5798,1.5799,1.5827,1.5827,1.5827,1.5827,0,0,0,0,0,0,0,1.5697,1.5699,1.5715,1.5728,1.5733,1.5746,1.575,1.5744,1.5778,1.5772,1.5776,1.578,1.5806,1.5809,1.581,1.5799,1.5827,1.5827,1.5827,1.5827,1.5764,1.5762,0,0,0,0,0,0,1.5692,1.5698,1.5713,1.5716,1.572,1.5745,1.575,1.5751,1.5778,1.5784,1.5778,1.5782,1.5808,1.581,1.5811,1.5776,1.5827,1.5827,1.5826,1.5766,1.5764,1.5762,0,0,0,0,0,0,1.5691,1.5692,1.5712,1.5708,1.5711,1.5744,1.5744,1.5751,1.5754,1.5783,1.5789,1.5775,1.5809,1.5811,1.5799,1.5777,1.5826,1.5826,1.5767,1.5765,1.5763,1.5704,0,0,0,0,0,0,1.569,1.5692,1.5681,1.5707,1.5711,1.57,1.5743,1.575,1.5754,1.5759,1.5781,1.5787,1.5811,1.5799,1.5799,1.5778,1.5826,1.5769,1.5766,1.5763,1.5708,1.57,1.5693,0,0,0,0,0,1.5689,1.5663,1.568,1.5681,1.5698,1.5699,1.5701,1.573,1.5752,1.574,1.5759,1.5786,1.5781,1.5798,1.5798,1.5777,1.5771,1.5767,1.5764,1.5712,1.5702,1.5694,0,0,0,0,0,0,1.5631,1.5667,1.5686,1.5667,1.568,1.5708,1.5694,1.5719,1.5724,1.5729,1.5764,1.5768,1.5751,1.5764,1.5782,1.5748,1.578,1.5776,1.574,1.5731,1.5724,1.572,1.5826,0,0,0,0,0,1.5617,1.5615,1.5646,1.5626,1.5631,1.5662,1.5663,1.5684,1.5698,1.5703,1.5721,1.5733,1.5734,1.5734,1.5736,1.5711,1.5716,1.5697,1.569,1.5683,1.5679,1.5665,1.5657,1.575,1.575,1.575,0,0,1.5586,1.5605,1.5601,1.5615,1.5627,1.5623,1.5666,1.566,1.5657,1.5702,1.5692,1.5705,1.5721,1.5702,1.5695,1.5711,1.5655,1.5679,1.5673,1.5672,1.5661,1.5652,1.5644,1.5748,1.5748,1.5748,0,0,1.5527,1.5542,1.5527,1.5538,1.5557,1.5577,1.5574,1.5598,1.5609,1.56,1.5633,1.5631,1.5632,1.5641,1.5646,1.5592,1.5616,1.5592,1.5552,1.5538,1.5531,1.5524,1.5503,1.5495,1.5588,1.5588,1.5588,0,1.5486,1.5482,1.5516,1.5508,1.5513,1.5555,1.5539,1.5549,1.5566,1.5568,1.5587,1.5589,1.5603,1.5586,1.5573,1.5576,1.5572,1.5588,1.5529,1.5523,1.5518,1.5498,1.549,1.5585,1.5585,1.5585,1.5586,0,1.543,1.5427,1.5413,1.5429,1.5432,1.5421,1.5452,1.5451,1.5473,1.5491,1.548,1.5498,1.5505,1.5503,1.5524,1.5489,1.5499,1.5523,1.5556,1.5505,1.5487,1.548,1.558,1.5581,1.5582,1.5583,0,0,1.5333,1.537,1.5363,1.5371,1.5395,1.5393,1.5383,1.5391,1.5388,1.54,1.5391,1.5392,1.5415,1.542,1.5443,1.5431,1.5385,1.5457,1.5458,1.5441,1.5346,1.5325,1.5316,1.5403,1.5401,1.54,1.5344,0,1.5277,1.5263,1.5293,1.5271,1.5268,1.5309,1.53,1.5313,1.5331,1.533,1.5349,1.5348,1.538,1.5383,1.5374,1.5393,1.5366,1.5398,1.5393,1.5393,1.5385,1.5307,1.5285,1.5231,1.5337,1.5336,1.5335,0,1.521,1.5218,1.5195,1.522,1.522,1.5212,1.5221,1.5221,1.5236,1.525,1.5256,1.5283,1.5274,1.5308,1.5296,1.5316,1.5317,1.5326,1.5325,1.5323,1.5359,1.5301,1.5215,1.5205,1.5325,1.5326,1.5326,0,1.5139,1.5145,1.5132,1.5137,1.5167,1.516,1.5171,1.5189,1.5191,1.5199,1.5201,1.5208,1.5211,1.5215,1.5242,1.5265,1.5226,1.5262,1.5235,1.5235,1.5223,1.5223,1.5133,1.5228,1.5228,1.5228,1.5228,0,1.5071,1.5055,1.51,1.5091,1.5075,1.511,1.5093,1.5109,1.5124,1.5119,1.5155,1.5149,1.5188,1.5186,1.5208,1.5193,1.5195,1.5204,1.521,1.52,1.5198,1.5198,1.5202,1.5226,1.5226,1.5227,1.5227,0,1.4988,1.5017,1.5006,1.5035,1.5042,1.5028,1.5053,1.5046,1.5067,1.5059,1.506,1.5092,1.5091,1.512,1.5126,1.5141,1.5116,1.513,1.511,1.5114,1.5084,1.5086,1.4989,1.4978,1.5082,1.5081,1.508,0,1.4942,1.493,1.4959,1.4958,1.4968,1.4967,1.497,1.5006,1.5007,1.5024,1.5015,1.5018,1.5022,1.502,1.5043,1.5047,1.506,1.5026,1.506,1.505,1.5056,1.5055,1.5054,1.5017,1.5016,1.5015,1.5014,0,1.4856,1.4871,1.4874,1.4882,1.4885,1.4893,1.4903,1.49,1.4939,1.4938,1.4939,1.4942,1.4949,1.4951,1.496,1.4971,1.4998,1.5004,1.4997,1.4985,1.4973,1.4977,1.5088,1.5005,1.5006,1.5006,1.5007,1.5007,1.4788,1.4779,1.4798,1.48,1.4812,1.4821,1.4815,1.4836,1.4837,1.4845,1.4867,1.4863,1.488,1.4894,1.4904,1.4901,1.4918,1.4909,1.4907,1.4903,1.4897,1.4976,1.4903,1.4904,1.4904,1.4904,1.4904,0,1.4702,1.4716,1.4718,1.4731,1.4733,1.4761,1.4773,1.4772,1.4769,1.4783,1.4787,1.4787,1.4789,1.4813,1.4818,1.4811,1.4824,1.4811,1.4811,1.4812,1.4882,1.4886,1.4801,1.4801,1.4801,1.4801,1.4801,1.4801,1.4657,1.4643,1.4661,1.4654,1.4669,1.4666,1.4671,1.4679,1.469,1.4689,1.4691,1.4708,1.4725,1.4732,1.4735,1.4742,1.4741,1.4723,1.4734,1.4798,1.4808,1.4817,1.4821,1.4723,1.4723,1.4664,1.4663,1.4663]}]]